Lapse_Rate
5.7 5.3 6.2 6.7 6.1 6.7 6.2 6.5 4.8 4.2 3.9 3.8 3.7 4.3 3.9 6.1 5.7 5.6 6.9 7.4 6.5 5.3 5.0 4.6 4.4 3.9 3.6 4.5 4.8 4.1 4.7 5.0
6.1 2.9 7.0 6.7 6.3 6.5 5.8 6.3 5.4 5.2 5.5 3.8 4.0 4.4 3.9 5.8 5.4 5.7 6.2 6.8 5.8 5.2 4.5 3.6 4.3 5.1 4.3 5.0 4.6 4.2 3.3 3.8
5.9 5.1 4.3 6.3 5.8 5.9 5.7 6.0 5.9 5.8 6.7 4.1 4.2 4.3 4.0 5.4 4.7 5.6 5.6 6.3 5.6 4.8 3.8 3.8 3.6 3.5 3.5 3.8 4.1 3.3 2.9 3.9
6.1 6.2 5.9 5.8 5.5 5.6 5.4 5.5 5.7 6.2 6.1 4.5 4.2 4.7 4.0 4.6 5.1 4.8 4.7 5.5 5.7 5.3 4.5 3.9 3.2 3.1 3.2 3.3 3.2 3.4 3.7 4.0
6.6 6.4 6.1 5.4 5.5 5.7 5.7 5.0 5.5 6.1 5.9 6.3 6.5 6.8 6.3 5.8 5.2 3.7 4.1 4.8 4.9 5.2 4.3 3.6 2.7 2.1 2.6 2.8 3.1 2.9 2.6 3.5
6.9 6.6 6.2 5.6 5.2 5.3 5.7 4.8 5.4 5.8 5.8 6.0 6.0 6.9 6.2 5.0 4.7 4.8 3.9 3.1 4.1 4.5 3.7 2.7 2.1 1.5 2.0 2.7 3.0 3.5 3.0 3.0
7.0 6.8 6.9 6.3 5.6 5.6 5.9 5.1 5.2 5.6 5.5 5.8 5.7 5.7 5.0 4.9 4.8 4.9 4.1 2.8 2.2 2.9 3.2 2.2 2.3 1.6 1.5 1.7 2.2 2.9 3.3 3.3
6.2 6.2 6.0 4.5 5.5 5.8 5.4 5.1 5.1 5.4 6.2 5.1 5.6 5.7 5.3 3.9 4.7 4.6 3.3 2.3 2.0 1.8 1.4 1.0 1.1 1.6 1.6 1.3 1.2 2.0 2.6 3.0
5.6 5.3 4.3 3.9 4.5 5.2 5.6 4.9 5.1 5.3 6.0 4.5 5.5 5.1 5.5 4.0 4.1 4.0 3.9 3.6 2.1 1.3 1.3 1.0 1.4 1.8 1.5 1.7 0.9 1.4 2.6 3.1
3.5 3.7 3.5 2.9 3.9 4.5 4.5 5.1 5.3 4.7 5.2 3.7 3.6 3.9 3.4 4.4 4.0 3.6 3.0 2.3 2.6 0.9 0.7 1.3 0.6 0.7 0.8 1.0 1.5 1.6 1.4 1.3
4.2 3.5 3.5 2.1 2.7 4.7 3.5 3.3 4.4 4.9 4.8 4.3 3.9 3.6 2.7 3.1 3.4 3.4 2.7 1.4 1.8 0.5 1.1 1.4 0.8 0.6 0.9 1.0 1.1 1.0 0.8 0.6
4.1 3.3 2.4 2.8 2.0 2.4 4.1 3.8 3.4 3.7 4.5 4.3 3.4 1.9 1.6 1.5 1.9 2.2 1.6 1.9 1.9 1.1 0.7 0.9 1.5 1.0 0.6 0.7 0.8 1.4 1.9 2.2
4.7 4.3 3.9 5.6 4.4 3.7 4.4 3.7 4.6 2.9 3.0 2.8 2.7 2.0 1.8 1.7 1.4 0.8 0.6 1.0 1.0 0.9 0.9 2.2 0.8 1.1 0.5 1.2 1.3 1.2 1.2 2.1
5.8 5.3 5.0 3.8 3.9 3.7 3.9 4.0 5.8 3.8 3.7 2.9 2.1 1.8 2.0 1.8 1.1 1.2 1.5 1.7 1.3 1.9 1.7 1.6 1.7 0.9 0.9 2.1 1.4 1.2 1.4 1.2
6.2 5.4 5.7 6.3 5.0 4.4 3.6 2.7 2.5 3.0 3.3 3.8 4.2 3.2 3.0 2.0 2.3 1.6 0.6 1.3 1.4 1.3 1.7 1.3 1.5 1.2 1.7 2.8 2.3 1.2 1.6 2.0
6.5 5.5 6.3 7.0 5.9 5.1 4.5 3.9 3.1 2.7 2.6 3.0 2.7 2.9 3.1 1.7 2.2 1.6 1.5 1.5 1.1 1.2 1.1 1.1 1.1 1.2 1.0 1.5 1.7 1.1 1.1 1.6
6.9 6.8 6.7 6.8 7.1 6.9 6.3 5.5 4.8 3.7 3.1 2.7 2.1 1.7 2.1 2.0 1.7 2.1 1.8 1.8 1.6 1.0 1.3 1.8 0.7 1.7 -0.7 -0.3 0.6 1.1 2.7 1.5
6.8 6.4 5.9 6.4 6.3 5.8 5.3 5.4 5.4 5.5 4.5 3.8 3.0 2.5 2.3 2.1 2.3 2.4 2.0 1.5 1.5 1.6 1.7 1.4 1.4 0.7 -1.4 -0.7 -0.8 1.1 1.1 0.4
6.4 5.7 5.6 5.3 6.2 7.2 7.1 7.3 7.0 6.2 5.6 4.9 4.4 3.4 2.9 2.5 2.7 2.9 2.5 2.6 2.1 1.9 2.1 1.9 1.8 1.9 -1.1 -0.8 -1.8 1.0 1.4 1.1
Wind_Speed
14 18 24 23 23 22 21 15 10 9 6 5 4 4 4 14 12 11 10 11 11 12 11 10 14 7 5 6 8 5 7 6
14 10 21 21 23 23 20 20 15 9 7 5 4 6 3 5 8 15 13 12 14 13 6 7 10 7 6 6 5 8 4 8
14 17 10 22 25 25 21 23 20 13 10 5 4 5 3 4 6 11 16 15 14 12 7 5 5 5 7 6 6 3 3 5
20 23 20 21 26 27 23 24 22 18 17 7 4 4 3 3 7 6 6 16 13 14 11 7 5 5 5 5 6 8 7 1
24 26 24 21 23 23 24 23 23 19 21 16 14 12 9 6 7 5 7 13 12 13 12 11 7 5 6 5 5 5 6 5
27 27 27 21 23 23 23 21 23 21 18 18 13 13 9 9 8 12 8 6 12 12 13 11 7 4 6 7 5 6 4 4
29 27 26 18 22 21 19 21 20 20 17 18 16 15 13 11 12 10 8 5 5 8 12 10 10 5 7 6 6 7 6 5
22 21 19 14 17 21 20 22 20 19 17 11 15 18 17 14 14 11 10 5 4 6 6 6 5 7 8 8 6 6 6 4
23 20 15 11 14 19 18 21 20 20 20 10 12 13 12 11 14 11 10 9 7 7 7 7 8 9 9 7 4 4 5 3
15 17 19 10 7 9 12 12 14 16 17 8 7 7 8 10 12 13 10 9 9 8 7 7 6 7 8 7 4 6 6 6
12 7 2 5 7 1 8 11 12 15 17 12 8 9 8 9 11 12 11 9 11 11 8 5 5 6 7 8 5 5 6 4
11 9 6 10 5 7 4 4 13 12 13 14 12 8 7 7 10 10 14 12 12 10 9 10 8 7 6 6 5 6 6 4
10 12 12 10 10 11 15 10 12 6 8 10 10 10 10 10 11 11 13 12 10 11 10 6 8 7 6 6 7 6 7 5
10 10 12 12 9 8 8 8 9 4 7 7 7 10 5 6 11 10 8 10 12 11 11 10 9 6 7 5 6 7 7 7
11 8 8 12 9 8 7 5 6 3 11 11 1 8 8 8 6 13 12 11 12 11 12 12 10 8 6 6 6 6 5 3
12 9 8 7 9 7 8 8 8 6 6 8 7 8 10 11 10 7 9 13 10 11 9 8 8 8 6 7 7 7 7 7
14 12 11 11 9 9 10 8 9 8 7 6 6 8 7 8 8 8 9 9 9 9 8 9 9 6 10 10 8 6 8 9
14 12 12 10 9 7 8 10 9 10 9 7 7 5 6 6 7 8 7 8 9 9 9 8 8 5 10 10 10 5 5 7
11 8 10 12 10 13 13 10 9 9 9 9 7 6 5 5 6 7 7 8 9 9 8 7 7 6 10 11 8 6 5 6
Wind_Direction
179 157 163 165 164 163 155 162 160 154 159 136 124 159 149 161 163 174 163 175 143 133 134 124 116 117 116 124 130 122 133 126
180 174 165 162 164 165 158 162 163 155 167 148 149 178 157 176 163 168 147 139 117 120 129 128 121 140 154 143 125 128 69 120
171 177 167 163 169 167 163 167 168 161 173 164 152 171 158 163 152 161 148 141 128 134 137 135 110 124 128 131 136 110 104 147
172 180 192 172 171 169 167 169 171 167 171 164 148 166 118 126 146 147 147 143 148 139 156 145 122 134 139 138 139 131 152 190
177 179 186 173 173 170 168 169 172 173 172 177 176 180 179 154 158 148 151 146 150 146 149 142 132 141 140 145 144 143 138 161
183 181 181 167 170 175 176 169 171 174 180 184 179 175 169 150 150 148 153 147 149 150 141 139 132 131 146 153 153 147 155 154
183 183 180 170 172 172 173 172 178 180 176 189 186 170 159 155 155 155 161 155 150 149 144 148 150 147 164 168 173 166 162 163
178 176 178 169 164 178 179 176 177 180 191 200 186 170 164 156 159 156 157 152 144 164 145 150 153 150 160 159 164 169 167 166
169 164 155 178 186 178 185 178 177 177 187 190 196 177 169 165 161 157 163 167 161 156 152 151 157 156 157 154 143 150 146 163
146 149 157 136 177 196 166 175 178 178 184 173 173 177 156 170 160 158 158 154 156 151 150 160 155 151 144 139 161 164 169 171
84 89 112 137 110 230 174 159 173 182 180 178 176 174 154 148 143 152 146 145 148 143 138 131 155 145 148 147 165 169 171 169
60 72 49 185 136 129 346 241 173 175 185 177 167 131 133 130 134 142 140 144 148 138 139 157 170 156 143 143 151 145 147 144
82 68 74 139 156 173 181 273 258 221 188 165 164 151 152 154 145 139 139 143 141 145 138 170 142 168 140 149 159 153 149 166
94 83 82 86 95 88 166 243 224 203 189 112 137 131 122 140 140 137 139 151 149 156 154 169 173 160 164 193 152 156 163 164
84 70 84 103 103 101 94 78 70 70 137 119 252 152 134 135 182 149 150 151 155 159 169 170 169 172 168 167 145 155 173 132
65 55 45 95 116 105 98 82 73 75 77 106 133 128 143 142 141 136 147 151 160 166 159 167 163 164 160 154 156 148 127 131
52 39 37 41 60 125 114 110 104 86 86 82 71 84 101 120 126 145 155 147 160 155 162 177 163 169 151 155 149 149 177 165
53 35 18 13 49 82 123 120 116 109 101 84 77 80 98 114 133 145 146 145 149 158 161 158 176 164 161 165 175 164 160 158
55 38 19 8 26 58 72 101 103 103 103 107 107 101 105 107 125 136 147 152 157 156 163 171 172 185 176 182 179 165 159 160